Location: Karlsruhe
(49.0131°N, 8.3874°E)
Time: 00:14:40
(UTC+01:00)

ISS - Pass Details

Date: 04 January 2018
Orbit: 401 x 406 km, 51.6° (Epoch: 17 January)

Event Time Altitude Azimuth Distance (km) Brightness Sun altitude
Exits shadow 05:23:22 18° 73° (ENE) 1,074 -1.0 -27.9°
Drops below altitude 10° 05:24:21 10° 72° (ENE) 1,468 -0.2 -27.8°
Sets 05:26:27 0° 70° (ENE) 2,332 1.0 -27.4°
